Zurück zum Katalog

FENGYUN 1C DEB

AktivSSO
NORAD 29896·DEBRIS·🇨🇳 China

Gestartet May 10, 1999 von Taiyuan Satellite Launch Center

Loading…

Nächste Überflüge (nächste 24 Stunden)

TLE

AktuellSource: Space-Track

Epoche: Sep 13, 2026, 15:19 UTC

1 29896U 99025GS  26256.63829449  .00000326  00000-0  36884-3 0  9998
2 29896  99.3927 145.4639 0239410 113.6630 315.9953 13.65620814977943

Verfolge FENGYUN 1C DEB in Echtzeit mit AllMySat

Download on the App Store